Regional Weather Roundup
Issued by NWS

Current Version | Previous Version | Text Only | Print | Product List | Glossary On
Versions: 1 2 3 4 5 6 7 8 9 10 11 12 13 14 15 16 17 18 19 20 21 22 23 24 25 26 27 28 29 30 31 32 33 34 35 36 37 38 39 40 41 42 43 44 45 46 47 48 49 50
000
ASHW40 PHFO 191943
RWRHI

WEATHER ROUNDUP FOR HAWAII
NATIONAL WEATHER SERVICE HONOLULU HI
900 AM HST MON FEB 19 2018

THIS IS AN AUTOMATED REPORT THAT HAS NOT BEEN QUALITY CONTROLLED.

NOTE..."FAIR" INDICATES FEW OR NO CLOUDS BELOW 12,000 FEET WITH NO
SIGNIFICANT WEATHER AND/OR OBSTRUCTIONS TO VISIBILITY.

* - THESE SITES REPORT LIMITED FIELDS
# - BUOY DATA PROVIDED BY PACIFIC ISLANDS OCEAN OBSERVING SYSTEM.

HIZ001>004-192000-
KAUAI-NIIHAU-

CITY           SKY/WX    TMP DP  RH WIND       PRES   REMARKS
LIHUE APT      MOSUNNY   71  66  84 N8        30.00R
PORT ALLEN*      N/A     70 N/A N/A NE2         N/A
POIPU*           N/A     68 N/A N/A NE5G10      N/A
PRINCEVILLE*     N/A     64 N/A N/A S2          N/A
KOKOLE POINT*  NOT AVBL
MOLOAA DAIRY*    N/A     70  66  88 W3          N/A
WAIMEA HTS*      N/A     75  63  64 SW3         N/A
PUU OPAE*        N/A    N/A N/A N/A SW2         N/A
PUU LUA*       NOT AVBL
MAKAHA RIDGE*    N/A     68  59  73 NW1G7       N/A
$$

HIZ005>011-192000-
OAHU-

CITY           SKY/WX    TMP DP  RH WIND       PRES   REMARKS
HONOLULU       MOSUNNY   73  62  68 N5        29.97S
KALAELOA         N/A     72  62  71 NE5       29.98S
KANEOHE MCB    SUNNY     71  66  84 CALM      29.96R
WHEELER FIELD  FAIR      68  60  74 CALM      30.01R
BELLOWS*         N/A    N/A N/A N/A N1G7        N/A
KAHUKU*          N/A    N/A N/A N/A NE5         N/A
WHEELER*         N/A    N/A N/A N/A NW3         N/A
WAIANAE HARBOR   N/A    N/A N/A N/A W3          N/A
DILLINGHAM*    NOT AVBL
KAHUKU TRN*      N/A     61  54  77 NW2G8       N/A
KAWAILOA*        N/A     70  55  60 CALM        N/A
KII*             N/A     72  64  78 SE5         N/A
MAKUA RANGE*     N/A     73  57  56 NW3G9       N/A
OAHU FOREST NW   N/A     72  55  56 E7G16       N/A
SCHOFIELD BRK*   N/A     55  41  58 CALM        N/A
SCHOFIELD S*   NOT AVBL
WAIANAE VLY*     N/A     75  55  50 E2          N/A
KUAOKALA*        N/A     72  59  64 NE5         N/A
HONOULIUULI*   NOT AVBL
MOKUOLOE IS*   NOT AVBL
PALEHUA*         N/A     72  52  49 S2          N/A
WAIAWA PHB*    NOT AVBL
$$

HIZ012>013-192000-
MOLOKAI-

CITY           SKY/WX    TMP DP  RH WIND       PRES   REMARKS
MOLOKAI AIRPT  SUNNY     72  60  66 NE7G18    29.98R
KALAUPAPA      NOT AVBL
MAKAPULAPAI*     N/A     73  63  68 E12G17      N/A
MOLOKAI 1*       N/A     55  46  71 W1G9        N/A
PUU ALII*        N/A     68  56  66 N1          N/A
$$

HIZ016-192000-
KAHOOLAWE-

CITY           SKY/WX    TMP DP  RH WIND       PRES   REMARKS
KAHOOLAWE*     NOT AVBL
HAKIOAWA*        N/A     69  62  77 MISG      30.39R
HONOKANAIA*    NOT AVBL
KANELOA*         N/A    N/A N/A N/A N14G21    30.01R
KEALIALALO*    NOT AVBL
LUA MAKIKA*    NOT AVBL
$$

HIZ014>015-192000-
LANAI-

CITY           SKY/WX    TMP DP  RH WIND       PRES   REMARKS
LANAI CITY     FAIR      69  58  67 NE10      30.01R
LANAI 1*         N/A     70  63  78 E13G23      N/A
$$

HIZ017>028-192000-
MAUI-

CITY           SKY/WX    TMP DP  RH WIND       PRES   REMARKS
KAHULUI        MOSUNNY   73  65  75 N6        29.98R
KAPALUA-W MAUI MOSUNNY   70  64  83 N9        29.99
HANA AIRPORT   SUNNY     73  32  21 NW5       30.03R
HANA*            N/A     73 N/A N/A N5          N/A
HALEAKALA SUMM   N/A     36  32  87 W24         N/A  WCI  24
MAALAEA BAY*     N/A     73 N/A N/A NE10G16     N/A
HALEAKALA*     NOT AVBL
KAUPO GAP*     NOT AVBL
KULA 1*          N/A     46  39  76 S2G8        N/A
$$

HIZ023>026-192000-
BIG ISLAND OF HAWAII COAST AND LOWER SLOPES-

CITY           SKY/WX    TMP DP  RH WIND       PRES   REMARKS
KAILUA KONA    MOSUNNY   76  62  62 N8        29.95R
HILO           MOSUNNY   73  64  73 CALM      29.98R
HONOKAA*         N/A     70 N/A N/A VRB1        N/A
KAWAIHAE MWT*    N/A     79 N/A N/A E6          N/A
KAWAIHAE*        N/A     75 N/A N/A SW6       29.94R
SOUTH POINT*     N/A     73 N/A N/A N6          N/A
UPOLU AIRPORT* NOT AVBL
KAMUELA*       CLEAR     70  55  60 NW3       30.06S
HAKALAU*         N/A     56  49  79 NE3         N/A
KALOKO-HONOKO*   N/A     79  66  65 NW5       29.96R
PALI 2*          N/A     72  59  64 NE3         N/A
KEALAKOMO*       N/A     79  61  53 NW8G17      N/A
KAUPULEHU*       N/A     73  59  60 W3          N/A
KAPAPALA*        N/A     73  61  65 E3G9        N/A
LOWER KAHUKU*    N/A     63  54  72 SW1         N/A
PUHE CS*         N/A     79  52  38 SE3         N/A
PUHO CS*         N/A     75  63  66 N2          N/A
PTA KEAMUKU*     N/A     66  50  55 SW9         N/A
WAIKOLOA*        N/A     75  55  50 W3          N/A
$$

HIZ027>028-192000-
BIG ISLAND OF HAWAII INTERIOR AND SUMMMITS-

CITY           SKY/WX    TMP DP  RH WIND       PRES   REMARKS
BRADSHAW FIELD SUNNY     61  37  41 MISG      30.25R
MK VISITOR CEN   N/A     46  32  57 W8          N/A
MAUNA KEA*       N/A     23  21  93 SW38        N/A  WCI   4
MAUNA LOA*       N/A    N/A N/A N/A MISG        N/A
MAUNA LOA 1*   NOT AVBL
PTA KIPUKA*      N/A     46  36  66 N3          N/A
PTA RANGE 17*    N/A     45  34  65 NW3         N/A
PTA WEST*        N/A     66  46  48 SE1G9       N/A
NENE CABIN*      N/A     55  43  62 W6          N/A
AHUMOA*          N/A     58  47  66 SW9G17      N/A
PTA PORTABLE*  NOT AVBL
PUU MALI*        N/A     55 N/A N/A NE7         N/A
$$

HIC003-192000-
NORTHWEST ISLANDS-

CITY           SKY/WX    TMP DP  RH WIND       PRES   REMARKS
MIDWAY ISLAND  MOCLDY    70  63  78 E14       30.11S
MIDWAY NOS*      N/A     70 N/A N/A MISG      30.10S
FRENCH FRIGATE NOT AVBL
$$

PHZ110>124-180-192000-
BUOY REPORTS

STATION/POSITION TIME  TEMP    WIND        PRES    WAVE   SWELL
                       AIR SEA DIR/SP/G            HT/PER HT/DIR
                 (UTC) (F)     (DEG/KT/KT) (MB)    (FT/S) (FT/D)
BUOY 51001       1930   76 77   80/ 14/ 17 1012.9R
BUOY 51101       1850   71 73   20/ 16/ 17 1017.1R   9/14   7/310
BUOY 51100       NOT AVBL
BUOY 51002       1930   76 77   80/ 10/ 14 1013.9R
BUOY 51003       1850   75 77  100/  8/ 10 1013.9R   8/16   7/330
BUOY 51004       1930   75 77  290/  8/ 14 1014.7R
WAIMEA BAY#      NOT AVBL
MOKAPU POINT#    1904      74                N/A     7/ 9   2/ 40
LANAI#           NOT AVBL
BARBERS PT 2#    NOT AVBL
PAUWELA#         1930      75                N/A     8/ 9   3/ 20
HILO#            1927      75                N/A     7/ 9   3
KANEOHE BAY#     NOT AVBL
KANEOHE BAY 2#   NOT AVBL
HANALEI#         1922      75                N/A     7/15   3/310
KAHULUI HARBOR   1906   71 77   10/  5/  7 1015.1
HONOLULU HARBOR  1906   73 74  120/  2/  2 1014.6
PEARL HARBOR#    1900      75                N/A     3/ 6
KILO NALU        NOT AVBL
HILO HARBOR      1906   72 74  330/  7/  9 1015.3
MOKUOLOE         1836   67      CALM  /  1 1015.0R
NAWILIWILI       1906   68 76  230/  5/  7 1015.6
WHOTS BUOY       NOT AVBL
BUOY 51028       NOT AVBL
$$

......................KEY........................................
  SKY/WX - SKY CONDITIONS/PRESENT WEATHER
  TMP    - TEMPERATURE IN FAHRENHEIT
  DWPT   - DEWPOINT IN FAHRENHEIT
  RH     - RELATIVE HUMIDITY IN PERCENT
  WIND   - DIRECTION AND SPEED /MPH FOR ISLANDS...KTS FOR BUOYS/
  PRES   - MEAN SEA LEVEL PRESSURE IN INCHES OF HG
  VSB    - VISIBILITY IN MILES
  HX     - HEAT INDEX
  WCI    - WIND CHILL INDEX
  VRB    - VARIABLE WIND DIRECTION
  N/A    - NOT AVAILABLE




USA.gov is the U.S. government's official web portal to all federal, state and local government web resources and services.